Weather History for Mullan Pass, ID

Change the Weather History Date:

Saturday, May 25, 2013

  Actual Average (K3TH) Record (K3TH)
Temperature  
Mean Temperature 36 °F -  
Max Temperature 44 °F 66 °F 89 °F (2001)
Min Temperature 30 °F 46 °F 46 °F (1997)
Degree Days  
Heating Degree Days 29    
Moisture  
Dew Point 31 °F    
Average Humidity 88    
Maximum Humidity 100    
Minimum Humidity 65    
Precipitation  
Precipitation 0.00 in - - ()
Sea Level Pressure  
Sea Level Pressure 29.95 in    
Wind  
Wind Speed 4 mph (SSW)    
Max Wind Speed 7 mph    
Max Gust Speed -    
Visibility 6 miles    
Events Fog    
Averages and records for this station are not official NWS values.
T = Trace of Precipitation, MM = Missing Value Source: NWS Daily Summary

Daily Weather History Graph

Daily Weather History Graph

Search for Another Location

Airport:

Trip Planner

Search our weather history database for the weather conditions in past years. The results will help you decide how hot, cold, wet, or windy it might be!

Date:

Astronomy

May. 25, 2013 Rise Set
Actual Time 4:54 AM PDT 8:25 PM PDT
Civil Twilight 4:16 AM PDT 9:03 PM PDT
Nautical Twilight 3:25 AM PDT 9:54 PM PDT
Astronomical Twilight 2:18 AM PDT 11:02 PM PDT
Moon 9:16 PM PDT (5/25) 5:27 AM PDT (5/25)
Length of Visible Light 16h 46m
Length of Day
15h 30m
Waxing Gibbous, 99% of the Moon is Illuminated
May 25
Waxing Gibbous
May 31
Last Quarter
Jun 8
New
Jun 16
First Quarter
Jun 23
Full

Hourly Weather History & Observations

Time (PDT) Temp. Windchill Dew Point Humidity Pressure Visibility Wind Dir Wind Speed Gust Speed Precip Events Conditions
12:25 AM 30.2 °F 25.4 °F 30.2 °F 100% 29.98 in 1.8 mi South 4.6 mph - N/A   Overcast
12:29 AM 30.2 °F 24.3 °F 30.2 °F 100% 29.98 in 0.8 mi South 5.8 mph - N/A   Overcast
12:36 AM 30.2 °F 24.3 °F 30.2 °F 100% 29.98 in 2.0 mi SSW 5.8 mph - N/A   Overcast
12:43 AM 30.2 °F 24.3 °F 30.2 °F 100% 29.98 in 10.0 mi SSW 5.8 mph - N/A   Overcast
12:53 AM 30.9 °F 24.3 °F 30.0 °F 96% 29.90 in 10.0 mi SSW 6.9 mph - N/A   Overcast
1:38 AM 30.2 °F 24.3 °F 30.2 °F 100% 29.97 in - SSW 5.8 mph - N/A   Mostly Cloudy
1:53 AM 30.9 °F 25.2 °F 30.0 °F 96% 29.90 in - SW 5.8 mph - N/A   Overcast
2:53 AM 30.9 °F 26.2 °F 30.0 °F 96% 29.88 in 10.0 mi Variable 4.6 mph - N/A   Overcast
3:53 AM 30.9 °F 25.2 °F 28.9 °F 92% 29.88 in 10.0 mi SW 5.8 mph - N/A   Overcast
4:28 AM 30.2 °F 25.4 °F 28.4 °F 93% 29.97 in 1.2 mi South 4.6 mph - N/A   Overcast
4:53 AM 30.0 °F 25.2 °F 30.0 °F 100% 29.89 in 0.5 mi South 4.6 mph - N/A Fog Light Freezing Fog
5:07 AM 30.2 °F 23.4 °F 30.2 °F 100% 29.97 in 0.2 mi South 6.9 mph - N/A Fog Light Freezing Fog
5:53 AM 30.0 °F 25.2 °F 30.0 °F 100% 29.91 in 0.2 mi South 4.6 mph - N/A Fog Light Freezing Fog
6:36 AM 30.2 °F 25.4 °F 30.2 °F 100% 29.99 in 0.2 mi South 4.6 mph - N/A Fog Light Freezing Fog
6:53 AM 30.9 °F 25.2 °F 30.0 °F 96% 29.91 in 0.2 mi South 5.8 mph - N/A Fog Light Freezing Fog
7:19 AM 30.2 °F 25.4 °F 30.2 °F 100% 29.99 in 0.5 mi South 4.6 mph - N/A Fog Light Freezing Fog
7:30 AM 30.2 °F 24.3 °F 30.2 °F 100% 29.99 in 1.5 mi SSE 5.8 mph - N/A   Overcast
7:37 AM 30.2 °F 24.3 °F 30.2 °F 100% 29.99 in 3.0 mi South 5.8 mph - N/A   Overcast
7:53 AM 30.9 °F 27.5 °F 30.9 °F 100% 29.91 in 1.5 mi Variable 3.5 mph - N/A   Overcast
7:55 AM 30.2 °F 26.7 °F 30.2 °F 100% 29.99 in 0.8 mi South 3.5 mph - N/A   Overcast
8:03 AM 30.2 °F - 30.2 °F 100% 29.99 in 0.8 mi Calm Calm - N/A   Overcast
8:05 AM 32.0 °F - 30.2 °F 93% 29.99 in 1.5 mi Calm Calm - N/A   Overcast
8:10 AM 32.0 °F 28.7 °F 30.2 °F 93% 29.99 in 3.0 mi South 3.5 mph - N/A   Overcast
8:39 AM 33.8 °F 30.8 °F 32.0 °F 93% 30.00 in 10.0 mi Variable 3.5 mph - N/A   Overcast
8:53 AM 33.1 °F - 32.0 °F 96% 29.92 in 10.0 mi Calm Calm - N/A   Overcast
9:39 AM 33.8 °F - 32.0 °F 93% 29.99 in 10.0 mi Calm Calm - N/A   Overcast
9:53 AM 33.1 °F - 30.9 °F 92% 29.92 in 10.0 mi Calm Calm - N/A   Overcast
10:00 AM 33.8 °F 30.8 °F 30.2 °F 87% 30.00 in 10.0 mi SW 3.5 mph - N/A   Overcast
10:53 AM 36.0 °F - 28.9 °F 76% 29.91 in 10.0 mi Calm Calm - N/A   Overcast
11:10 AM 35.6 °F 32.8 °F 33.8 °F 93% 30.00 in 10.0 mi NNW 3.5 mph - N/A   Overcast
11:19 AM 37.4 °F - 32.0 °F 81% 30.01 in 10.0 mi Calm Calm - N/A   Overcast
11:53 AM 37.0 °F 34.5 °F 30.9 °F 79% 29.92 in 10.0 mi Variable 3.5 mph - N/A   Overcast
12:53 PM 39.0 °F - 32.0 °F 76% 29.91 in 10.0 mi Calm Calm - N/A   Overcast
1:29 PM 39.2 °F - 30.2 °F 70% 30.02 in - Calm Calm - N/A   Overcast
1:53 PM 39.0 °F - 30.0 °F 70% 29.92 in 10.0 mi Calm Calm - N/A   Overcast
2:53 PM 42.1 °F 40.2 °F 30.9 °F 65% 29.91 in 10.0 mi Variable 3.5 mph - N/A   Overcast
3:53 PM 39.9 °F 37.8 °F 30.0 °F 68% 29.92 in 10.0 mi NW 3.5 mph - N/A   Overcast
4:53 PM 42.1 °F - 32.0 °F 67% 29.92 in 10.0 mi Calm Calm - N/A   Mostly Cloudy
5:53 PM 41.0 °F - 30.9 °F 67% 29.92 in 10.0 mi Calm Calm - N/A   Mostly Cloudy
6:53 PM 39.9 °F - 32.0 °F 73% 29.92 in - Calm Calm - N/A   Scattered Clouds
7:53 PM 39.0 °F - 33.1 °F 79% 29.93 in 10.0 mi Calm Calm - N/A   Scattered Clouds
8:53 PM 37.9 °F - 30.9 °F 76% 29.92 in 10.0 mi Calm Calm - N/A   Clear
9:53 PM 37.9 °F 35.5 °F 30.0 °F 73% 29.92 in 10.0 mi South 3.5 mph - N/A   Clear
10:53 PM 37.9 °F 35.5 °F 30.9 °F 76% 29.92 in 10.0 mi SSW 3.5 mph - N/A   Clear
11:53 PM 37.9 °F 35.5 °F 30.0 °F 73% 29.90 in - SSE 3.5 mph - N/A   Clear